1509314400.06,3702,9.69,71560.3,-12.19,-12.79,-12.79,0,*5D
1509314401.35,3703,9.69,71562.0,-12.19,-12.75,-12.79,0,*50
1509314402.61,3704,9.63,71556.5,-12.19,-12.89,-12.79,0,*54
1509314403.9,3705,9.69,71560.0,-12.19,-12.79,-12.79,0,*5A
1509314405.16,3706,9.69,71558.8,-12.19,-12.89,-12.79,0,*56
1509314406.42,3707,9.69,71560.5,-12.21,-12.79,-12.79,0,*53
1509314407.68,3708,9.69,71556.3,-12.17,-12.83,-12.75,0,*50
1509314408.94,3709,9.69,71556.8,-12.17,-12.83,-12.75,0,*51
1509314410.17,3710,9.63,71552.3,-12.19,-12.89,-12.89,0,*5E
1509314411.44,3711,9.69,71552.3,-12.19,-12.89,-12.79,0,*50
1509314412.72,3712,9.69,71548.8,-12.19,-12.79,-12.79,0,*5C
1509314413.99,3713,9.69,71548.3,-12.19,-12.93,-12.79,0,*59
1509314415.27,3714,9.63,71544.0,-12.19,-12.79,-12.79,0,*5A
1509314416.56,3715,9.69,71546.3,-12.19,-12.75,-12.75,0,*5B
1509314417.85,3716,9.63,71532.0,-12.19,-12.75,-12.75,0,*58
1509314419.12,3717,9.63,71534.8,-12.19,-12.89,-12.75,0,*5A
1509314420.38,3718,9.69,71536.8,-12.19,-12.89,-12.75,0,*55
1509314421.63,3719,9.69,71536.3,-12.17,-12.83,-12.75,0,*50
1509314422.92,3720,9.69,71538.3,-12.19,-12.79,-12.79,0,*5D
1509314424.21,3721,9.63,71530.5,-12.19,-12.79,-12.79,0,*5C
1509314425.5,3722,9.63,71534.8,-12.19,-12.79,-12.79,0,*5F
1509314426.78,3723,9.69,71538.0,-12.19,-12.79,-12.79,0,*5E
1509314427.99,3724,9.69,71538.5,-12.21,-12.89,-12.89,0,*52
1509314429.23,3725,9.69,71532.3,-12.19,-12.89,-12.89,0,*58
1509314430.49,3726,9.69,71530.8,-12.19,-12.89,-12.79,0,*54
1509314431.72,3727,9.69,71528.0,-12.19,-12.89,-12.89,0,*5A
1509314432.99,3728,9.63,71520.5,-12.19,-12.89,-12.79,0,*5A
1509314434.22,3729,9.69,71520.5,-12.19,-12.89,-12.89,0,*54
1509314435.48,3730,9.63,71518.8,-12.19,-12.79,-12.93,0,*58
1509314436.74,3731,9.63,71516.3,-12.17,-12.75,-12.83,0,*5A
1509314438.0,3732,9.63,71516.5,-12.17,-12.83,-12.83,0,*50
1509314439.23,3733,9.69,71518.5,-12.17,-12.83,-12.89,0,*5B
1509314440.48,3734,9.63,71518.5,-12.17,-12.83,-12.83,0,*56
1509314441.73,3735,9.63,71518.3,-12.17,-12.83,-12.83,0,*57
1509314442.99,3736,9.63,71518.0,-12.19,-12.79,-12.89,0,*55
1509314444.26,3737,9.63,71516.3,-12.19,-12.89,-12.75,0,*58
1509314445.52,3738,9.63,71518.5,-12.21,-12.79,-12.79,0,*5F
1509314446.81,3739,9.63,71522.5,-12.19,-12.75,-12.79,0,*59
1509314448.07,3740,9.69,71520.8,-12.17,-12.75,-12.75,0,*55
1509314449.33,3741,9.63,71522.5,-12.17,-12.83,-12.75,0,*5D
1509314450.59,3742,9.63,71520.3,-12.17,-12.75,-12.75,0,*57
1509314451.85,3743,9.63,71522.3,-12.17,-12.75,-12.75,0,*56
1509314453.14,3744,9.63,71522.3,-12.19,-12.79,-12.79,0,*5F
1509314454.43,3745,9.63,71524.0,-12.19,-12.79,-12.79,0,*5E
1509314455.72,3746,9.63,71520.3,-12.19,-12.79,-12.75,0,*51
1509314457.0,3747,9.63,71528.0,-12.19,-12.79,-12.75,0,*50
1509314458.29,3748,9.63,71528.8,-12.19,-12.75,-12.79,0,*5F
1509314459.55,3749,9.63,71530.5,-12.17,-12.71,-12.75,0,*58
1509314460.81,3750,9.63,71530.5,-12.13,-12.71,-12.65,0,*55
1509314462.07,3751,9.63,71532.0,-12.17,-12.71,-12.71,0,*55
1509314463.34,3752,9.63,71532.5,-12.17,-12.71,-12.71,0,*56
1509314464.6,3753,9.63,71534.3,-12.17,-12.71,-12.75,0,*53
1509314465.86,3754,9.63,71538.3,-12.17,-12.71,-12.71,0,*50
1509314467.13,3755,9.63,71542.0,-12.17,-12.75,-12.75,0,*51
1509314468.38,3756,9.63,71546.3,-12.13,-12.71,-12.61,0,*57
1509314469.65,3757,9.63,71544.0,-12.17,-12.71,-12.71,0,*53
1509314470.91,3758,9.63,71548.0,-12.17,-12.75,-12.71,0,*58
1509314472.18,3759,9.69,71552.8,-12.17,-12.71,-12.71,0,*5D
1509314473.44,3760,9.63,71550.5,-12.17,-12.75,-12.75,0,*57
1509314474.7,3761,9.63,71554.0,-12.17,-12.71,-12.75,0,*52
1509314475.97,3762,9.63,71554.5,-12.17,-12.75,-12.71,0,*51
1509314477.24,3763,9.63,71558.0,-12.17,-12.75,-12.71,0,*50
1509314478.5,3764,9.63,71558.5,-12.17,-12.75,-12.71,0,*57
1509314479.76,3765,9.63,71556.5,-12.13,-12.65,-12.65,0,*56
1509314481.02,3766,9.63,71558.5,-12.17,-12.71,-12.71,0,*51
1509314482.28,3767,9.63,71562.5,-12.17,-12.75,-12.75,0,*50
1509314483.55,3768,9.63,71566.8,-12.17,-12.71,-12.75,0,*5B
1509314484.81,3769,9.63,71566.3,-12.17,-12.71,-12.71,0,*5E
1509314486.07,3770,9.63,71568.3,-12.17,-12.75,-12.71,0,*52
1509314487.34,3771,9.63,71570.3,-12.17,-12.71,-12.71,0,*57
1509314488.6,3772,9.69,71572.8,-12.17,-12.75,-12.61,0,*51
1509314489.86,3773,9.63,71568.3,-12.17,-12.71,-12.71,0,*55
1509314491.13,3774,9.63,71570.0,-12.17,-12.71,-12.71,0,*52
1509314492.39,3775,9.63,71572.3,-12.17,-12.71,-12.75,0,*57
1509314493.65,3776,9.63,71578.3,-12.17,-12.71,-12.71,0,*50
1509314494.92,3777,9.63,71576.8,-12.17,-12.75,-12.75,0,*51
1509314496.18,3778,9.69,71582.3,-12.17,-12.71,-12.75,0,*5A
1509314497.44,3779,9.69,71584.3,-12.17,-12.75,-12.71,0,*5B
1509314498.7,3780,9.63,71584.0,-12.13,-12.71,-12.65,0,*58
1509314499.96,3781,9.63,71586.0,-12.17,-12.75,-12.71,0,*5C
1509314501.23,3782,9.63,71586.5,-12.17,-12.71,-12.75,0,*5F
1509314502.48,3783,9.63,71584.5,-12.13,-12.71,-12.65,0,*5B
1509314503.74,3784,9.63,71586.3,-12.17,-12.71,-12.71,0,*5D
1509314505.01,3785,9.63,71590.0,-12.17,-12.75,-12.71,0,*58
1509314506.26,3786,9.63,71590.8,-12.17,-12.65,-12.65,0,*5F
1509314507.53,3787,9.69,71592.3,-12.17,-12.75,-12.71,0,*5A
1509314508.79,3788,9.63,71592.3,-12.17,-12.71,-12.71,0,*51
1509314510.06,3789,9.63,71596.5,-12.17,-12.71,-12.71,0,*50
1509314511.32,3790,9.63,71594.3,-12.17,-12.71,-12.71,0,*58
1509314512.59,3791,9.63,71596.5,-12.17,-12.75,-12.71,0,*5D
1509314513.85,3792,9.63,71596.3,-12.13,-12.65,-12.57,0,*5F
1509314515.1,3793,9.63,71598.3,-12.17,-12.71,-12.65,0,*5E
1509314516.36,3794,9.63,71598.3,-12.13,-12.65,-12.71,0,*5D
1509314517.63,3795,9.63,71602.3,-12.13,-12.65,-12.71,0,*5C
1509314518.89,3796,9.63,71598.5,-12.17,-12.71,-12.71,0,*5E
1509314520.15,3797,9.63,71602.0,-12.17,-12.71,-12.75,0,*5B
1509314521.41,3798,9.63,71604.0,-12.13,-12.65,-12.65,0,*54
1509314522.67,3799,9.63,71606.0,-12.13,-12.65,-12.71,0,*50
1509314523.94,3800,9.63,71604.8,-12.17,-12.75,-12.71,0,*5A
1509314525.2,3801,9.63,71606.8,-12.17,-12.71,-12.75,0,*5B
1509314526.45,3802,9.63,71604.3,-12.13,-12.71,-12.65,0,*5D
1509314527.71,3803,9.63,71610.3,-12.17,-12.75,-12.75,0,*5D
1509314528.98,3804,9.69,71614.8,-12.17,-12.71,-12.75,0,*5E
1509314530.24,3805,9.63,71612.0,-12.13,-12.71,-12.71,0,*5F
1509314531.51,3806,9.63,71610.5,-12.17,-12.75,-12.71,0,*5C
1509314532.76,3807,9.63,71614.0,-12.17,-12.83,-12.75,0,*50
1509314534.03,3808,9.63,71614.5,-12.17,-12.75,-12.75,0,*56
1509314535.29,3809,9.63,71614.3,-12.17,-12.75,-12.71,0,*53
1509314536.56,3810,9.63,71614.8,-12.17,-12.75,-12.75,0,*5F
1509314537.82,3811,9.63,71608.8,-12.17,-12.75,-12.71,0,*5A
1509314539.09,3812,9.63,71608.5,-12.13,-12.79,-12.71,0,*51
1509314540.32,3813,9.63,71610.0,-12.17,-12.89,-12.83,0,*56
1509314541.58,3814,9.63,71610.8,-12.17,-12.71,-12.71,0,*5B
1509314542.84,3815,9.63,71612.3,-12.17,-12.75,-12.83,0,*53
1509314544.1,3816,9.63,71614.3,-12.17,-12.75,-12.83,0,*50
1509314545.36,3817,9.63,71614.3,-12.13,-12.71,-12.65,0,*59
1509314546.62,3818,9.63,71618.5,-12.13,-12.75,-12.79,0,*5F
1509314547.88,3819,9.63,71618.3,-12.17,-12.75,-12.75,0,*56
1509314549.15,3820,9.63,71612.3,-12.13,-12.79,-12.71,0,*50
1509314550.4,3821,9.63,71614.5,-12.17,-12.83,-12.83,0,*5D
1509314551.66,3822,9.63,71614.5,-12.17,-12.83,-12.83,0,*5E
1509314552.91,3823,9.63,71608.0,-12.17,-12.83,-12.75,0,*56
1509314554.17,3824,9.63,71604.5,-12.17,-12.83,-12.83,0,*58
1509314555.38,3825,9.63,71604.8,-12.17,-12.89,-12.89,0,*59
1509314556.61,3826,9.63,71608.5,-12.17,-12.89,-12.83,0,*50
1509314557.86,3827,9.63,71606.3,-12.17,-12.83,-12.83,0,*5B
1509314559.09,3828,9.63,71602.5,-12.17,-12.89,-12.83,0,*5E
1509314560.32,3829,9.63,71598.3,-12.17,-12.89,-12.83,0,*5F
1509314561.56,3830,9.63,71592.0,-12.19,-12.89,-12.93,0,*58
1509314562.79,3831,9.63,71592.5,-12.19,-12.89,-12.89,0,*52
1509314564.05,3832,9.63,71588.0,-12.19,-12.79,-12.89,0,*5E
1509314565.31,3833,9.63,71586.3,-12.17,-12.83,-12.75,0,*57
1509314566.57,3834,9.63,71582.3,-12.17,-12.83,-12.83,0,*59
1509314567.82,3835,9.63,71576.0,-12.17,-12.83,-12.75,0,*51
1509314569.06,3836,9.63,71572.0,-12.19,-12.93,-12.89,0,*5E
1509314570.33,3837,9.63,71572.8,-12.19,-12.93,-12.79,0,*50
1509314571.59,3838,9.63,71568.5,-12.17,-12.75,-12.75,0,*55
1509314572.85,3839,9.63,71566.5,-12.17,-12.75,-12.75,0,*54
1509314574.12,3840,9.63,71568.3,-12.17,-12.75,-12.75,0,*5A
1509314575.38,3841,9.63,71566.8,-12.17,-12.75,-12.75,0,*5B
1509314576.64,3842,9.63,71562.3,-12.17,-12.75,-12.75,0,*58
1509314577.91,3843,9.63,71564.5,-12.17,-12.75,-12.75,0,*59
1509314579.17,3844,9.63,71570.0,-12.17,-12.71,-12.75,0,*5A
1509314580.43,3845,9.63,71568.3,-12.17,-12.83,-12.71,0,*52
1509314581.69,3846,9.63,71570.5,-12.17,-12.83,-12.71,0,*51
1509314582.95,3847,9.63,71568.3,-12.19,-12.89,-12.79,0,*5C
1509314584.21,3848,9.63,71566.5,-12.17,-12.83,-12.75,0,*5B
1509314585.47,3849,9.63,71564.5,-12.17,-12.75,-12.75,0,*53
1509314586.73,3850,9.63,71566.8,-12.17,-12.75,-12.83,0,*52
1509314587.99,3851,9.63,71576.3,-12.17,-12.75,-12.83,0,*53
1509314589.25,3852,9.63,71582.3,-12.17,-12.83,-12.75,0,*50
1509314590.51,3853,9.63,71590.3,-12.17,-12.75,-12.75,0,*58
1509314591.77,3854,9.63,71582.5,-12.17,-12.83,-12.83,0,*5F
1509314592.97,3855,9.63,71580.3,-12.17,-12.89,-12.89,0,*5E
1509314594.2,3856,9.63,71582.0,-12.17,-13.07,-13.01,0,*5B
1509314595.42,3857,9.63,71568.5,-12.17,-13.15,-13.01,0,*59
1509314596.66,3858,9.63,71560.3,-12.17,-13.33,-13.19,0,*5B
1509314597.87,3859,9.63,71552.8,-12.17,-13.43,-13.19,0,*5D
1509314599.13,3860,9.63,71546.3,-12.19,-13.65,-13.61,0,*52
1509314600.38,3861,9.63,71536.0,-12.21,-13.79,-13.87,0,*5D
1509314601.68,3862,9.63,71528.3,-12.19,-14.01,-14.05,0,*50
1509314602.94,3863,9.63,71516.3,-12.21,-14.05,-14.05,0,*5E
1509314604.23,3864,9.63,71514.0,-12.19,-14.05,-14.05,0,*52
1509314605.49,3865,9.63,71498.0,-12.19,-13.93,-14.01,0,*5F
1509314606.76,3866,9.63,71490.0,-12.21,-14.01,-14.01,0,*5B
1509314607.99,3867,9.63,71482.5,-12.21,-13.93,-14.01,0,*56
1509314609.19,3868,9.63,71472.8,-12.21,-13.93,-13.93,0,*55
1509314610.44,3869,9.63,71480.5,-12.21,-13.87,-13.87,0,*54
1509314611.67,3870,9.63,71478.5,-12.21,-13.87,-13.93,0,*59
1509314612.88,3871,9.63,71472.5,-12.21,-14.19,-14.23,0,*54
1509314614.17,3872,9.63,71476.5,-12.23,-13.97,-13.97,0,*5C
1509314615.43,3873,9.63,71476.5,-12.23,-13.97,-14.11,0,*54
1509314616.73,3874,9.63,71482.5,-12.23,-13.97,-13.97,0,*5A
1509314618.02,3875,9.63,71478.3,-12.23,-13.97,-13.97,0,*5B
1509314619.31,3876,9.63,71492.3,-12.23,-14.05,-14.05,0,*58
1509314620.6,3877,9.63,71496.5,-12.23,-14.05,-14.05,0,*59
1509314621.82,3878,9.63,71502.8,-12.23,-13.93,-13.93,0,*56
1509314623.08,3879,9.63,71518.8,-12.23,-13.83,-13.93,0,*56
1509314624.33,3880,9.63,71532.5,-12.23,-13.79,-13.69,0,*50
1509314625.55,3881,9.63,71536.5,-12.23,-13.65,-13.69,0,*5C
1509314626.8,3882,9.63,71538.3,-12.23,-13.79,-13.69,0,*52
1509314628.03,3883,9.63,71532.8,-12.23,-13.55,-13.55,0,*52
1509314629.26,3884,9.63,71532.8,-12.23,-13.43,-13.43,0,*55
1509314630.5,3885,9.63,71534.8,-12.23,-13.51,-13.55,0,*50
1509314631.72,3886,9.63,71536.3,-12.23,-13.43,-13.43,0,*57
1509314632.96,3887,9.63,71536.5,-12.23,-13.43,-13.51,0,*55
1509314634.19,3888,9.63,71534.0,-12.23,-13.51,-13.55,0,*5D
1509314635.43,3889,9.63,71534.3,-12.23,-13.51,-13.55,0,*5C
1509314636.67,3890,9.63,71536.0,-12.23,-13.51,-13.55,0,*54
1509314637.9,3891,9.63,71538.8,-12.23,-13.43,-13.55,0,*56
1509314639.16,3892,9.63,71542.5,-12.23,-13.37,-13.55,0,*56
1509314640.39,3893,9.63,71542.8,-12.23,-13.51,-13.65,0,*54
1509314641.62,3894,9.63,71550.8,-12.23,-13.55,-13.65,0,*57
1509314642.85,3895,9.63,71548.0,-12.23,-13.55,-13.65,0,*56
1509314644.07,3896,9.63,71548.3,-12.23,-13.65,-13.69,0,*5A
1509314645.3,3897,9.63,71552.8,-12.23,-13.69,-13.69,0,*57
1509314646.55,3898,9.63,71558.0,-12.23,-13.65,-13.79,0,*55
1509314647.82,3899,9.63,71564.5,-12.23,-13.79,-13.79,0,*59
1509314649.05,3900,9.63,71566.3,-12.23,-13.69,-13.69,0,*58
1509314650.27,3901,9.63,71566.8,-12.23,-13.65,-13.69,0,*55
1509314651.53,3902,9.63,71568.3,-12.27,-13.83,-13.73,0,*51
1509314652.76,3903,9.63,71572.5,-12.27,-13.73,-13.73,0,*5F
1509314654.02,3904,9.63,71574.0,-12.27,-13.73,-13.83,0,*57
1509314655.25,3905,9.63,71574.3,-12.27,-13.73,-13.73,0,*59
1509314656.54,3906,9.63,71576.5,-12.27,-13.61,-13.61,0,*5A
1509314657.82,3907,9.63,71582.8,-12.27,-13.61,-13.83,0,*57
1509314659.08,3908,9.63,71586.3,-12.27,-13.55,-13.61,0,*53
1509314660.31,3909,9.63,71586.8,-12.27,-13.43,-13.55,0,*52
1509314661.59,3910,9.63,71592.0,-12.23,-13.37,-13.37,0,*59
1509314662.87,3911,9.63,71592.3,-12.23,-13.29,-13.37,0,*57
1509314664.12,3912,9.63,71590.5,-12.27,-13.33,-13.47,0,*5C
1509314665.35,3913,9.63,71594.8,-12.29,-13.33,-13.43,0,*57
1509314666.64,3914,9.63,71594.3,-12.27,-13.33,-13.33,0,*59
1509314667.89,3915,9.63,71598.5,-12.27,-13.33,-13.43,0,*5F
1509314669.17,3916,9.63,71598.0,-12.27,-13.33,-13.33,0,*5B
1509314670.46,3917,9.63,71592.5,-12.27,-13.29,-13.33,0,*51
1509314671.71,3918,9.63,71592.3,-12.27,-13.33,-13.43,0,*52
1509314672.94,3919,9.63,71588.8,-12.27,-13.43,-13.43,0,*54
1509314674.2,3920,9.63,71590.3,-12.27,-13.33,-13.43,0,*59
1509314675.45,3921,9.63,71584.3,-12.23,-13.37,-13.43,0,*58
1509314676.71,3922,9.63,71582.8,-12.27,-13.55,-13.61,0,*5B
1509314677.97,3923,9.63,71580.8,-12.27,-13.61,-13.73,0,*5E
1509314679.2,3924,9.63,71576.8,-12.27,-13.69,-13.73,0,*51
1509314680.45,3925,9.63,71574.5,-12.27,-13.69,-13.83,0,*5F
1509314681.68,3926,9.63,71574.5,-12.27,-13.69,-13.73,0,*53
1509314682.94,3927,9.63,71572.8,-12.27,-13.69,-13.83,0,*5D
1509314684.17,3928,9.63,71576.8,-12.27,-13.69,-13.73,0,*5D
1509314685.4,3929,9.63,71576.0,-12.27,-13.69,-13.73,0,*5C
1509314686.66,3930,9.63,71586.0,-12.27,-13.61,-13.69,0,*57
1509314687.91,3931,9.63,71586.8,-12.27,-13.47,-13.61,0,*5A
1509314689.15,3932,9.63,71590.0,-12.27,-13.43,-13.55,0,*5A
1509314690.41,3933,9.63,71594.8,-12.27,-13.55,-13.61,0,*5B
1509314691.66,3934,9.63,71598.3,-12.27,-13.61,-13.73,0,*58
1509314692.95,3935,9.63,71598.3,-12.27,-13.83,-13.83,0,*5A
1509314694.24,3936,9.63,71582.5,-12.27,-13.97,-13.97,0,*59
1509314695.54,3937,9.63,71564.3,-12.27,-13.97,-14.01,0,*50
1509314696.78,3938,9.63,71580.3,-12.27,-14.15,-14.15,0,*57
1509314698.05,3939,9.63,71594.5,-12.29,-14.01,-13.87,0,*51
1509314699.31,3940,9.63,71584.3,-12.27,-13.97,-14.15,0,*55
1509314700.61,3941,9.63,71578.5,-12.27,-14.01,-14.01,0,*59
1509314701.85,3942,9.63,71558.0,-12.27,-14.19,-14.33,0,*52
1509314703.14,3943,9.63,71544.5,-12.27,-14.47,-14.55,0,*58
1509314704.44,3944,9.63,71536.0,-12.31,-14.47,-14.47,0,*5B
1509314705.68,3945,9.63,71540.5,-12.33,-14.05,-14.19,0,*55
1509314706.95,3946,9.63,71542.0,-12.31,-14.05,-14.15,0,*58
1509314708.25,3947,9.63,71540.5,-12.31,-14.05,-14.05,0,*58
1509314709.51,3948,9.63,71554.3,-12.31,-13.93,-14.05,0,*5F
1509314710.78,3949,9.63,71550.3,-12.31,-14.01,-14.15,0,*53
1509314712.04,3950,9.63,71544.8,-12.31,-13.93,-14.05,0,*56
1509314713.29,3951,9.63,71550.0,-12.31,-13.87,-13.93,0,*5A
1509314714.55,3952,9.63,71550.5,-12.31,-13.87,-13.93,0,*59
1509314715.81,3953,9.63,71554.8,-12.31,-13.87,-13.93,0,*58
1509314717.09,3954,9.63,71560.3,-12.31,-13.79,-13.87,0,*5B
1509314718.37,3955,9.63,71556.8,-12.31,-13.87,-13.87,0,*5B
1509314719.61,3956,9.63,71552.0,-12.31,-13.73,-13.73,0,*58
1509314720.84,3957,9.63,71554.3,-12.31,-13.65,-13.73,0,*5E
1509314722.05,3958,9.63,71554.3,-12.29,-13.69,-13.69,0,*5F
1509314723.31,3959,9.63,71554.3,-12.31,-13.73,-13.87,0,*5C
1509314724.59,3960,9.63,71546.5,-12.31,-13.79,-13.79,0,*5D
1509314725.87,3961,9.63,71550.5,-12.31,-13.79,-13.79,0,*5C
1509314727.12,3962,9.63,71544.0,-12.33,-13.87,-13.87,0,*5D
1509314728.4,3963,9.63,71546.0,-12.31,-13.79,-13.79,0,*5E
1509314729.68,3964,9.63,71540.5,-12.31,-13.79,-13.79,0,*59
1509314730.94,3965,9.63,71536.0,-12.33,-13.79,-14.01,0,*52
1509314732.22,3966,9.63,71536.3,-12.31,-13.87,-13.87,0,*5B
1509314733.47,3967,9.63,71534.0,-12.33,-13.79,-13.87,0,*59
1509314734.7,3968,9.63,71532.8,-12.33,-13.79,-13.93,0,*53
1509314735.98,3969,9.63,71538.5,-12.31,-13.87,-13.87,0,*54
1509314737.19,3970,9.63,71538.5,-12.33,-13.73,-13.73,0,*5E
1509314738.4,3971,9.63,71542.5,-12.33,-13.73,-13.65,0,*58
1509314739.66,3972,9.63,71548.3,-12.31,-13.61,-13.65,0,*5A
1509314740.89,3973,9.63,71548.8,-12.31,-13.65,-13.73,0,*58
1509314742.15,3974,9.63,71554.5,-12.31,-13.73,-13.79,0,*52
1509314743.4,3975,9.63,71556.0,-12.31,-13.65,-13.79,0,*54
1509314744.63,3976,9.63,71558.3,-12.33,-13.73,-13.87,0,*53
1509314745.85,3977,9.63,71554.3,-12.33,-13.65,-13.87,0,*55
1509314747.09,3978,9.63,71558.3,-12.31,-13.65,-13.73,0,*53
1509314748.35,3979,9.63,71562.8,-12.31,-13.65,-13.61,0,*51
1509314749.61,3980,9.63,71564.8,-12.31,-13.65,-13.61,0,*57
1509314750.85,3981,9.63,71568.5,-12.31,-13.51,-13.65,0,*55
1509314752.12,3982,9.63,71578.3,-12.31,-13.51,-13.61,0,*52
1509314753.36,3983,9.63,71582.3,-12.31,-13.47,-13.51,0,*57
1509314754.62,3984,9.63,71584.0,-12.33,-13.61,-13.61,0,*55
1509314755.89,3985,9.63,71586.8,-12.31,-13.51,-13.61,0,*55
1509314757.15,3986,9.63,71590.0,-12.31,-13.65,-13.61,0,*51
1509314758.42,3987,9.63,71592.8,-12.31,-13.51,-13.61,0,*57
1509314759.69,3988,9.63,71594.3,-12.31,-13.51,-13.61,0,*58
1509314760.96,3989,9.63,71592.8,-12.31,-13.51,-13.61,0,*59
1509314762.25,3990,9.63,71592.8,-12.31,-13.61,-13.61,0,*52
1509314763.46,3991,9.63,71592.0,-12.29,-13.69,-13.55,0,*55
1509314764.7,3992,9.63,71590.3,-12.31,-13.73,-13.65,0,*57
1509314765.96,3993,9.63,71596.8,-12.31,-13.65,-13.61,0,*55
1509314767.22,3994,9.63,71594.3,-12.31,-13.65,-13.61,0,*52
1509314768.49,3995,9.63,71596.5,-12.31,-13.51,-13.61,0,*54
1509314769.73,3996,9.63,71596.8,-12.31,-13.51,-13.47,0,*53
1509314770.96,3997,9.63,71598.8,-12.33,-13.47,-13.61,0,*53
1509314772.22,3998,9.63,71602.3,-12.31,-13.47,-13.37,0,*5D
1509314773.5,3999,9.63,71608.3,-12.31,-13.37,-13.37,0,*5B
1509314774.79,4000,9.63,71604.0,-12.31,-13.37,-13.37,0,*55
1509314776.07,4001,9.63,71600.5,-12.31,-13.33,-13.37,0,*50
1509314777.36,4002,9.63,71606.5,-12.31,-13.33,-13.37,0,*53
1509314778.65,4003,9.63,71602.3,-12.31,-13.33,-13.33,0,*56
1509314779.88,4004,9.63,71610.5,-12.29,-13.43,-13.33,0,*5F
1509314781.09,4005,9.63,71598.8,-12.29,-13.43,-13.43,0,*59
1509314782.35,4006,9.63,71600.3,-12.31,-13.61,-13.51,0,*50
1509314783.61,4007,9.63,71606.8,-12.31,-13.37,-13.47,0,*55
1509314784.9,4008,9.63,71606.3,-12.31,-13.61,-13.61,0,*5D
1509314786.11,4009,9.63,71604.5,-12.29,-13.43,-13.55,0,*52
1509314787.37,4010,9.63,71610.3,-12.31,-13.37,-13.47,0,*53
1509314788.62,4011,9.63,71612.8,-12.31,-13.37,-13.47,0,*52
1509314789.85,4012,9.63,71612.8,-12.31,-13.47,-13.47,0,*56
1509314791.08,4013,9.63,71608.8,-12.31,-13.47,-13.47,0,*57
1509314792.31,4014,9.63,71608.5,-12.33,-13.37,-13.51,0,*52
1509314793.57,4015,9.63,71608.5,-12.31,-13.33,-13.51,0,*55
1509314794.83,4016,9.63,71604.8,-12.29,-13.33,-13.61,0,*5C
1509314796.1,4017,9.63,71604.8,-12.31,-13.37,-13.51,0,*53
1509314797.33,4018,9.63,71602.3,-12.31,-13.47,-13.73,0,*5B
1509314798.56,4019,9.63,71600.3,-12.29,-13.55,-13.87,0,*5B
1509314799.77,4020,9.63,71616.5,-12.29,-13.73,-14.19,0,*55
1509314801.04,4021,9.63,71620.3,-12.29,-14.47,-15.01,0,*5C
1509314802.3,4022,9.63,71612.3,-12.29,-15.35,-15.57,0,*58
1509314803.53,4023,9.63,71612.8,-12.33,-15.07,-15.21,0,*52
1509314804.82,4024,9.63,71616.0,-12.31,-15.21,-15.39,0,*5A
1509314806.05,4025,9.63,71614.3,-12.33,-15.01,-15.25,0,*56
1509314807.31,4026,9.63,71610.3,-12.35,-14.79,-15.11,0,*5A
1509314808.59,4027,9.63,71604.3,-12.35,-14.75,-14.93,0,*5C
1509314809.87,4028,9.63,71598.0,-12.35,-14.93,-14.93,0,*5B
1509314811.1,4029,9.63,71588.3,-12.39,-14.93,-15.07,0,*5A
1509314812.37,4030,9.63,71584.0,-12.39,-14.83,-14.97,0,*5B
1509314813.6,4031,9.63,71576.5,-12.39,-14.69,-14.83,0,*5B
1509314814.81,4032,9.63,71566.8,-12.39,-15.07,-15.07,0,*5C
1509314816.05,4033,9.63,71558.5,-12.41,-15.11,-15.01,0,*53
1509314817.31,4034,9.63,71552.5,-12.41,-14.89,-14.83,0,*5F
1509314818.54,4035,9.63,71556.0,-12.41,-15.15,-15.15,0,*54
1509314819.79,4036,9.63,71556.8,-12.43,-14.97,-15.01,0,*5B
1509314821.04,4037,9.63,71550.3,-12.43,-14.83,-14.89,0,*5E
1509314822.27,4038,9.63,71552.5,-12.43,-14.89,-14.83,0,*51
1509314823.49,4039,9.63,71548.8,-12.41,-14.69,-14.69,0,*58
1509314824.75,4040,9.63,71544.3,-12.43,-14.83,-14.75,0,*5D
1509314825.99,4041,9.63,71550.5,-12.43,-14.61,-14.55,0,*52
1509314827.25,4042,9.63,71552.8,-12.45,-14.55,-14.69,0,*5F
1509314828.55,4043,9.63,71548.3,-12.45,-14.47,-14.47,0,*51
1509314829.78,4044,9.63,71546.8,-12.45,-14.33,-14.33,0,*56
1509314831.06,4045,9.63,71532.3,-12.45,-14.43,-14.43,0,*57
1509314832.36,4046,9.63,71524.0,-12.45,-14.47,-14.47,0,*54
1509314833.6,4047,9.63,71516.0,-12.45,-14.33,-14.29,0,*5E
1509314834.83,4048,9.63,71518.8,-12.45,-14.29,-14.19,0,*59
1509314836.07,4049,9.63,71514.0,-12.45,-14.11,-14.11,0,*5B
1509314837.31,4050,9.63,71488.0,-12.45,-14.19,-14.19,0,*53
1509314838.55,4051,9.63,71516.5,-12.45,-14.19,-14.19,0,*52
1509314839.8,4052,9.63,71526.3,-12.45,-14.15,-14.19,0,*5D
1509314841.05,4053,9.63,71520.3,-12.45,-14.33,-14.43,0,*57
1509314842.31,4054,9.63,71526.3,-12.45,-14.65,-14.75,0,*56
1509314843.58,4055,9.63,71518.8,-12.45,-14.51,-14.65,0,*51
1509314844.82,4056,9.63,71492.5,-12.45,-14.61,-14.65,0,*51
1509314846.05,4057,9.63,71498.8,-12.45,-14.33,-14.33,0,*54
1509314847.29,4058,9.63,71482.8,-12.45,-14.33,-14.37,0,*5F
1509314848.53,4059,9.63,71498.5,-12.45,-14.19,-14.33,0,*52
1509314849.76,4060,9.63,71508.0,-12.49,-14.33,-14.37,0,*58
1509314851.01,4061,9.63,71526.3,-12.49,-14.23,-14.37,0,*58
1509314852.27,4062,9.63,71546.0,-12.49,-14.37,-14.55,0,*5A
1509314853.56,4063,9.56,71526.3,-12.49,-14.51,-14.55,0,*5B
1509314854.82,4064,9.63,71542.3,-12.49,-14.37,-14.43,0,*5B
1509314856.06,4065,9.56,71534.5,-12.49,-14.23,-14.33,0,*58
1509314857.31,4066,9.63,71546.5,-12.49,-14.23,-14.23,0,*5A
1509314858.57,4067,9.63,71552.3,-12.49,-14.37,-14.51,0,*5B
1509314859.85,4068,9.63,71554.3,-12.49,-14.43,-14.43,0,*54
1509314861.11,4069,9.63,71566.0,-12.51,-14.43,-14.43,0,*5C
1509314862.4,4070,9.63,71560.5,-12.49,-14.43,-14.55,0,*5A
1509314863.69,4071,9.63,71564.8,-12.49,-14.43,-14.51,0,*5F
1509314864.95,4072,9.63,71538.3,-12.51,-14.43,-14.51,0,*55
1509314866.19,4073,9.63,71520.0,-12.49,-14.33,-14.37,0,*5A
1509314867.4,4074,9.63,71526.8,-12.51,-14.37,-14.37,0,*50
1509314868.67,4075,9.63,71544.5,-12.49,-14.51,-14.65,0,*5F
1509314869.94,4076,9.56,71538.8,-12.51,-14.55,-14.79,0,*5C
1509314871.2,4077,9.63,71542.0,-12.49,-14.37,-14.43,0,*59
1509314872.44,4078,9.56,71530.3,-12.49,-14.23,-14.37,0,*50
1509314873.65,4079,9.56,71526.0,-12.51,-14.33,-14.37,0,*59
1509314874.9,4080,9.63,71534.5,-12.49,-14.23,-14.23,0,*52
1509314876.16,4081,9.63,71544.3,-12.49,-14.33,-14.51,0,*57
1509314877.4,4082,9.63,71542.8,-12.51,-14.23,-14.51,0,*5C
1509314878.64,4083,9.63,71558.0,-12.49,-14.33,-14.37,0,*55
1509314879.88,4084,9.56,71552.3,-12.51,-14.33,-14.51,0,*5B
1509314881.11,4085,9.63,71560.5,-12.51,-14.65,-14.83,0,*56
1509314882.34,4086,9.63,71574.5,-12.51,-14.69,-14.93,0,*58
1509314883.55,4087,9.56,71558.5,-12.51,-14.69,-15.07,0,*55
1509314884.81,4088,9.63,71558.8,-12.51,-15.39,-15.57,0,*5B
1509314886.08,4089,9.56,71546.0,-12.51,-15.81,-15.81,0,*52
1509314887.37,4090,9.63,71546.5,-12.53,-15.85,-15.89,0,*54
1509314888.6,4091,9.63,71552.0,-12.51,-15.57,-15.67,0,*58
1509314889.89,4092,9.63,71544.5,-12.53,-15.43,-15.57,0,*5F
1509314891.14,4093,9.56,71532.0,-12.55,-15.35,-15.49,0,*56
1509314892.36,4094,9.56,71528.3,-12.55,-15.25,-15.25,0,*5A
1509314893.65,4095,9.63,71536.3,-12.57,-15.35,-15.35,0,*59
1509314894.9,4096,9.63,71538.0,-12.57,-15.01,-15.11,0,*5B
1509314896.17,4097,9.63,71536.8,-12.57,-14.89,-14.97,0,*54
1509314897.41,4098,9.63,71542.3,-12.59,-14.75,-14.89,0,*59
1509314898.66,4099,9.63,71544.3,-12.57,-15.01,-15.15,0,*50
1509314899.9,4100,9.63,71510.8,-12.59,-15.15,-15.21,0,*5D
1509314901.13,4101,9.56,71504.5,-12.59,-15.29,-15.29,0,*5B
1509314902.36,4102,9.63,71510.0,-12.59,-15.29,-15.29,0,*58
1509314903.62,4103,9.63,71514.5,-12.59,-14.93,-15.01,0,*53
1509314904.83,4104,9.63,71502.0,-12.59,-15.07,-15.15,0,*5D
1509314906.06,4105,9.63,71494.3,-12.63,-15.15,-15.29,0,*59
1509314907.27,4106,9.63,71506.3,-12.63,-15.15,-15.15,0,*55
1509314908.51,4107,9.63,71498.0,-12.63,-15.07,-15.21,0,*50
1509314909.75,4108,9.56,71504.8,-12.63,-14.93,-14.89,0,*50